RYR7LB LIMJ-LICC

Flight info

Callsign RYR7LB
Flight time N/A
Altitude 37000
Route UNITA1C/28 UNITA DCT ELB DCT PODOX DCT LURON DCT BEKIV DCT ENEPA DCT LIBRO
Aircraft B38M/M-SDE1FGHILORVWXY/HB1

Departure

Time 2026-04-26 18:48
Airport Genoa Cristoforo Colombo Airport (LIMJ)

Arrival

Time N/A
Airport Catania-Fontanarossa Airport (LICC)
Time Latitude Longitude Altitude Speed Heading
2026-04-26 18:09 44.41599 8.85006 22 ft 0 kts 192°
2026-04-26 18:27 44.41604 8.85007 24 ft 3 kts 192°
2026-04-26 18:28 44.41630 8.85014 23 ft 4 kts 188°
2026-04-26 18:28 44.41657 8.85021 22 ft 4 kts 198°
2026-04-26 18:28 44.41676 8.85035 25 ft 1 kts 228°
2026-04-26 18:32 44.41672 8.85030 26 ft 1 kts 227°
2026-04-26 18:32 44.41670 8.85026 26 ft 0 kts 227°
2026-04-26 18:32 44.41664 8.85017 25 ft 3 kts 227°
2026-04-26 18:32 44.41643 8.84986 27 ft 4 kts 228°
2026-04-26 18:33 44.41626 8.84958 22 ft 3 kts 229°
2026-04-26 18:33 44.41623 8.84954 22 ft 0 kts 229°
2026-04-26 18:35 44.41621 8.84950 22 ft 1 kts 229°
2026-04-26 18:35 44.41613 8.84938 22 ft 3 kts 229°
2026-04-26 18:35 44.41608 8.84931 22 ft 1 kts 229°
2026-04-26 18:35 44.41607 8.84929 22 ft 1 kts 229°
2026-04-26 18:36 44.41592 8.84904 22 ft 7 kts 229°
2026-04-26 18:36 44.41554 8.84841 22 ft 9 kts 232°
2026-04-26 18:36 44.41522 8.84783 22 ft 8 kts 233°
2026-04-26 18:36 44.41489 8.84723 22 ft 6 kts 232°
2026-04-26 18:37 44.41462 8.84673 25 ft 7 kts 232°
2026-04-26 18:37 44.41428 8.84639 22 ft 3 kts 176°
2026-04-26 18:37 44.41405 8.84671 22 ft 8 kts 111°
2026-04-26 18:37 44.41383 8.84782 26 ft 14 kts 105°
2026-04-26 18:38 44.41358 8.84917 25 ft 14 kts 104°
2026-04-26 18:38 44.41340 8.85024 25 ft 9 kts 104°
2026-04-26 18:38 44.41331 8.85069 22 ft 4 kts 107°
2026-04-26 18:38 44.41321 8.85123 24 ft 7 kts 104°
2026-04-26 18:39 44.41311 8.85177 25 ft 1 kts 105°
2026-04-26 18:39 44.41307 8.85197 25 ft 3 kts 105°
2026-04-26 18:39 44.41295 8.85234 25 ft 5 kts 128°
2026-04-26 18:39 44.41279 8.85258 22 ft 4 kts 137°
2026-04-26 18:40 44.41251 8.85282 22 ft 6 kts 163°
2026-04-26 18:40 44.41218 8.85277 22 ft 3 kts 195°
2026-04-26 18:40 44.41215 8.85276 22 ft 0 kts 195°
2026-04-26 18:40 44.41210 8.85274 22 ft 1 kts 195°
2026-04-26 18:41 44.41196 8.85269 22 ft 3 kts 195°
2026-04-26 18:41 44.41170 8.85259 22 ft 5 kts 195°
2026-04-26 18:41 44.41154 8.85253 23 ft 0 kts 195°
2026-04-26 18:42 44.41152 8.85252 26 ft 0 kts 195°
2026-04-26 18:42 44.41149 8.85251 26 ft 2 kts 195°
2026-04-26 18:43 44.41128 8.85243 23 ft 5 kts 195°
2026-04-26 18:43 44.41105 8.85234 22 ft 2 kts 195°
2026-04-26 18:43 44.41104 8.85234 22 ft 0 kts 195°
2026-04-26 18:46 44.41101 8.85232 22 ft 0 kts 195°
2026-04-26 18:46 44.41099 8.85232 22 ft 1 kts 195°
2026-04-26 18:47 44.41059 8.85205 21 ft 11 kts 220°
2026-04-26 18:47 44.41013 8.85156 19 ft 5 kts 235°
2026-04-26 18:47 44.41013 8.85116 19 ft 0 kts 287°
2026-04-26 18:48 44.41020 8.85082 20 ft 16 kts 286°
2026-04-26 18:48 44.41129 8.84530 25 ft 99 kts 285°
2026-04-26 18:48 44.41371 8.83266 43 ft 164 kts 284°
2026-04-26 18:48 44.41671 8.81637 639 ft 182 kts 284°
2026-04-26 18:49 44.41937 8.79885 1505 ft 186 kts 272°
2026-04-26 18:49 44.41632 8.78107 2079 ft 197 kts 233°
2026-04-26 18:49 44.40503 8.77117 2682 ft 197 kts 188°
2026-04-26 18:49 44.39119 8.77330 3232 ft 206 kts 154°
2026-04-26 18:50 44.37956 8.78354 4245 ft 197 kts 145°
2026-04-26 18:50 44.36750 8.79309 4982 ft 200 kts 152°
2026-04-26 18:50 44.35508 8.80157 5737 ft 201 kts 154°
2026-04-26 18:50 44.34195 8.80942 6358 ft 211 kts 158°
2026-04-26 18:51 44.32784 8.81700 6896 ft 224 kts 159°
2026-04-26 18:51 44.31262 8.82502 7318 ft 244 kts 158°
2026-04-26 18:51 44.29613 8.83385 7735 ft 264 kts 158°
2026-04-26 18:51 44.27840 8.84343 8169 ft 282 kts 158°
2026-04-26 18:52 44.25988 8.85349 8953 ft 285 kts 158°
2026-04-26 18:52 44.24127 8.86363 9767 ft 289 kts 158°
2026-04-26 18:52 44.22258 8.87383 10455 ft 296 kts 158°
2026-04-26 18:52 44.20282 8.88462 10827 ft 315 kts 158°
2026-04-26 18:53 44.18173 8.89612 11134 ft 335 kts 158°
2026-04-26 18:53 44.15950 8.90824 11555 ft 349 kts 158°
2026-04-26 18:53 44.13673 8.92065 12272 ft 353 kts 158°
2026-04-26 18:53 44.11367 8.93320 13000 ft 358 kts 158°
2026-04-26 18:54 44.09025 8.94594 13758 ft 363 kts 158°
2026-04-26 18:54 44.06680 8.95868 14066 ft 367 kts 158°
2026-04-26 18:54 44.04294 8.97164 14137 ft 367 kts 158°
2026-04-26 18:54 44.01917 8.98453 14154 ft 366 kts 158°
2026-04-26 18:55 43.99542 8.99740 14148 ft 366 kts 158°
2026-04-26 18:55 43.97164 9.01028 14150 ft 366 kts 158°
2026-04-26 18:55 43.94812 9.02392 14139 ft 366 kts 150°
2026-04-26 18:55 43.92783 9.04495 14166 ft 365 kts 139°
2026-04-26 18:56 43.90823 9.06733 14153 ft 365 kts 140°
2026-04-26 18:56 43.88865 9.08979 14154 ft 365 kts 140°
2026-04-26 18:56 43.86932 9.11205 14160 ft 364 kts 140°
2026-04-26 18:56 43.84982 9.13455 14156 ft 364 kts 140°
2026-04-26 18:57 43.83033 9.15705 14157 ft 364 kts 140°
2026-04-26 18:57 43.81745 9.17190 14157 ft 364 kts 140°
2026-04-26 18:57 43.79140 9.20194 14157 ft 364 kts 140°
2026-04-26 18:57 43.77195 9.22433 14157 ft 364 kts 140°
2026-04-26 18:58 43.75248 9.24674 14157 ft 364 kts 140°
2026-04-26 18:58 43.73299 9.26914 14187 ft 366 kts 140°
2026-04-26 18:58 43.71331 9.29173 14851 ft 366 kts 140°
2026-04-26 18:58 43.69387 9.31403 15577 ft 371 kts 140°
2026-04-26 18:59 43.67388 9.33695 16248 ft 376 kts 140°
2026-04-26 18:59 43.65364 9.36014 16943 ft 380 kts 141°
2026-04-26 18:59 43.63316 9.38358 17607 ft 384 kts 141°
2026-04-26 18:59 43.61240 9.40732 18259 ft 389 kts 141°
2026-04-26 19:00 43.59140 9.43131 18860 ft 393 kts 141°
2026-04-26 19:00 43.57021 9.45550 19442 ft 397 kts 141°
2026-04-26 19:00 43.54886 9.47985 20016 ft 400 kts 141°
2026-04-26 19:00 43.52730 9.50441 20589 ft 404 kts 141°
2026-04-26 19:01 43.50582 9.52885 21158 ft 407 kts 141°
2026-04-26 19:01 43.48391 9.55376 21726 ft 410 kts 141°
2026-04-26 19:01 43.46180 9.57887 22288 ft 413 kts 141°
2026-04-26 19:01 43.43954 9.60413 22837 ft 417 kts 141°
2026-04-26 19:02 43.41708 9.62959 23385 ft 420 kts 141°
2026-04-26 19:02 43.39447 9.65519 23888 ft 423 kts 141°
2026-04-26 19:02 43.37161 9.68106 24331 ft 426 kts 142°
2026-04-26 19:02 43.35645 9.69820 24620 ft 428 kts 141°
2026-04-26 19:03 43.32551 9.73314 25199 ft 432 kts 142°
2026-04-26 19:03 43.30223 9.75939 25619 ft 435 kts 142°
2026-04-26 19:03 43.27870 9.78590 26040 ft 438 kts 142°
2026-04-26 19:03 43.25504 9.81253 26447 ft 441 kts 142°
2026-04-26 19:04 43.23124 9.83929 26857 ft 444 kts 141°
2026-04-26 19:04 43.20753 9.86593 27252 ft 447 kts 141°
2026-04-26 19:04 43.18337 9.89304 27646 ft 449 kts 141°
2026-04-26 19:04 43.15912 9.92022 28058 ft 452 kts 141°
2026-04-26 19:05 43.11015 9.97502 28814 ft 457 kts 141°
2026-04-26 19:05 43.08541 10.00266 29183 ft 460 kts 141°
2026-04-26 19:05 43.06052 10.03043 29552 ft 462 kts 141°
2026-04-26 19:06 43.03550 10.05832 29912 ft 465 kts 141°
2026-04-26 19:06 43.01036 10.08633 30261 ft 467 kts 141°
2026-04-26 19:06 42.98540 10.11409 30548 ft 470 kts 142°
2026-04-26 19:06 42.95996 10.14237 30854 ft 472 kts 141°
2026-04-26 19:07 42.93444 10.17068 31178 ft 474 kts 141°
2026-04-26 19:07 42.90876 10.19915 31459 ft 476 kts 141°
2026-04-26 19:07 42.88307 10.22763 31796 ft 477 kts 141°
2026-04-26 19:07 42.85731 10.25611 32196 ft 477 kts 141°
2026-04-26 19:08 42.83154 10.28459 32591 ft 476 kts 141°
2026-04-26 19:08 42.80580 10.31302 32990 ft 475 kts 141°
2026-04-26 19:08 42.78007 10.34141 33388 ft 475 kts 141°
2026-04-26 19:08 42.75438 10.36969 33768 ft 474 kts 142°
2026-04-26 19:09 42.72669 10.39364 34125 ft 472 kts 158°
2026-04-26 19:09 42.69577 10.40823 34464 ft 470 kts 164°
2026-04-26 19:09 42.66492 10.42144 34732 ft 470 kts 164°
2026-04-26 19:09 42.63370 10.43444 35066 ft 469 kts 165°
2026-04-26 19:10 42.60240 10.44720 35398 ft 468 kts 165°
2026-04-26 19:10 42.57116 10.45977 35730 ft 467 kts 166°
2026-04-26 19:10 42.53995 10.47227 36047 ft 466 kts 166°
2026-04-26 19:10 42.50888 10.48470 36344 ft 466 kts 166°
2026-04-26 19:11 42.47781 10.49711 36644 ft 465 kts 166°
2026-04-26 19:11 42.44680 10.50949 36937 ft 464 kts 166°
2026-04-26 19:11 42.41583 10.52184 37156 ft 464 kts 166°
2026-04-26 19:12 42.35395 10.54648 37148 ft 461 kts 166°
2026-04-26 19:12 42.29231 10.57103 37163 ft 462 kts 165°
2026-04-26 19:12 42.26293 10.58876 37151 ft 464 kts 151°
2026-04-26 19:13 42.23512 10.61083 37150 ft 466 kts 153°
2026-04-26 19:13 42.17925 10.65414 37166 ft 466 kts 152°
2026-04-26 19:14 42.12310 10.69816 37157 ft 466 kts 152°
2026-04-26 19:14 42.06688 10.74219 37151 ft 466 kts 152°
2026-04-26 19:15 42.01115 10.78576 37152 ft 466 kts 152°
2026-04-26 19:15 41.95514 10.82946 37155 ft 466 kts 152°
2026-04-26 19:16 41.89906 10.87312 37157 ft 466 kts 152°
2026-04-26 19:16 41.84290 10.91675 37169 ft 465 kts 152°
2026-04-26 19:17 41.78683 10.96023 37168 ft 465 kts 152°
2026-04-26 19:17 41.73107 11.00338 37160 ft 465 kts 152°
2026-04-26 19:18 41.67491 11.04674 37163 ft 465 kts 152°
2026-04-26 19:18 41.61879 11.08999 37165 ft 465 kts 152°
2026-04-26 19:19 41.56277 11.13308 37164 ft 465 kts 152°
2026-04-26 19:19 41.50674 11.17608 37165 ft 465 kts 152°
2026-04-26 19:20 41.45058 11.21911 37166 ft 465 kts 152°
2026-04-26 19:20 41.39479 11.26176 37164 ft 464 kts 152°
2026-04-26 19:21 41.33875 11.30451 37170 ft 464 kts 152°
2026-04-26 19:21 41.28274 11.34715 37167 ft 464 kts 152°
2026-04-26 19:22 41.22665 11.38977 37170 ft 464 kts 152°
2026-04-26 19:22 41.17067 11.43223 37166 ft 463 kts 152°
2026-04-26 19:23 41.11459 11.47467 37167 ft 463 kts 152°
2026-04-26 19:23 41.05896 11.51670 37168 ft 463 kts 152°
2026-04-26 19:24 41.00280 11.55904 37168 ft 463 kts 152°
2026-04-26 19:24 40.91904 11.62203 37205 ft 461 kts 150°
2026-04-26 19:25 40.88210 11.64974 37183 ft 459 kts 150°
2026-04-26 19:25 40.83550 11.68466 36951 ft 458 kts 152°
2026-04-26 19:25 40.80781 11.70538 37189 ft 459 kts 152°
2026-04-26 19:26 40.75215 11.74698 37167 ft 463 kts 152°
2026-04-26 19:26 40.69601 11.78885 37167 ft 463 kts 152°
2026-04-26 19:27 40.63987 11.83064 37167 ft 463 kts 152°
2026-04-26 19:27 40.58376 11.87232 37168 ft 463 kts 152°
2026-04-26 19:28 40.52763 11.91395 37171 ft 463 kts 152°
2026-04-26 19:28 40.47155 11.95544 37170 ft 462 kts 152°
2026-04-26 19:29 40.41587 11.99657 37171 ft 462 kts 152°
2026-04-26 19:29 40.35978 12.03791 37170 ft 462 kts 152°
2026-04-26 19:30 40.30364 12.07922 37170 ft 462 kts 152°
2026-04-26 19:30 40.26606 12.10683 37166 ft 462 kts 152°
2026-04-26 19:31 40.19129 12.16166 37172 ft 462 kts 152°
2026-04-26 19:31 40.13557 12.20241 37168 ft 462 kts 152°
2026-04-26 19:32 40.07947 12.24337 37168 ft 462 kts 152°
2026-04-26 19:32 40.02323 12.28436 37168 ft 462 kts 152°
2026-04-26 19:33 39.97660 12.31828 37172 ft 462 kts 152°
2026-04-26 19:33 39.92042 12.35908 37170 ft 462 kts 152°
2026-04-26 19:34 39.86417 12.39986 37168 ft 462 kts 152°
2026-04-26 19:34 39.80800 12.44049 37168 ft 462 kts 152°
2026-04-26 19:35 39.75214 12.48083 37170 ft 462 kts 153°
2026-04-26 19:35 39.69593 12.52134 37170 ft 462 kts 153°
2026-04-26 19:36 39.64882 12.55524 37170 ft 462 kts 153°
2026-04-26 19:36 39.58348 12.60217 37170 ft 462 kts 153°
2026-04-26 19:37 39.52720 12.64250 37168 ft 462 kts 153°
2026-04-26 19:37 39.47079 12.68286 37170 ft 462 kts 153°
2026-04-26 19:38 39.41448 12.72307 37171 ft 462 kts 153°
2026-04-26 19:38 39.35841 12.76303 37170 ft 462 kts 153°
2026-04-26 19:39 39.30206 12.80311 37163 ft 463 kts 153°
2026-04-26 19:39 39.24556 12.84324 37171 ft 463 kts 153°
2026-04-26 19:40 39.18907 12.88328 37173 ft 463 kts 153°
2026-04-26 19:40 39.13247 12.92334 37173 ft 463 kts 153°
2026-04-26 19:41 39.07587 12.96332 37159 ft 463 kts 154°
2026-04-26 19:41 39.02883 12.99650 37173 ft 465 kts 154°
2026-04-26 19:42 38.96244 13.04324 37169 ft 465 kts 154°
2026-04-26 19:42 38.90609 13.08283 37170 ft 465 kts 154°
2026-04-26 19:43 38.84871 13.12092 37165 ft 462 kts 160°
2026-04-26 19:43 38.78945 13.15377 37166 ft 465 kts 159°
2026-04-26 19:44 38.73018 13.18751 37167 ft 466 kts 159°
2026-04-26 19:44 38.67094 13.22130 37170 ft 466 kts 159°
2026-04-26 19:45 38.61172 13.25503 37171 ft 466 kts 159°
2026-04-26 19:45 38.55280 13.28851 37170 ft 466 kts 159°
2026-04-26 19:46 38.49347 13.32218 37165 ft 466 kts 159°
2026-04-26 19:46 38.43419 13.35576 36657 ft 464 kts 159°
2026-04-26 19:47 38.40451 13.37255 35678 ft 471 kts 159°
2026-04-26 19:47 38.38450 13.38386 35063 ft 475 kts 159°
2026-04-26 19:47 38.34389 13.40680 34029 ft 477 kts 159°
2026-04-26 19:47 38.31358 13.42388 33281 ft 476 kts 159°
2026-04-26 19:48 38.28328 13.44096 32508 ft 475 kts 159°
2026-04-26 19:48 38.25298 13.45802 31674 ft 477 kts 159°
2026-04-26 19:48 38.22254 13.47514 30850 ft 479 kts 159°
2026-04-26 19:48 38.19201 13.49230 30121 ft 478 kts 160°
2026-04-26 19:49 38.16208 13.50912 29475 ft 474 kts 159°
2026-04-26 19:49 38.13199 13.52600 28847 ft 470 kts 159°
2026-04-26 19:49 38.10218 13.54271 28197 ft 466 kts 159°
2026-04-26 19:49 38.07258 13.55927 27576 ft 463 kts 159°
2026-04-26 19:50 38.04311 13.57577 26964 ft 460 kts 159°
2026-04-26 19:50 38.01397 13.59206 26347 ft 457 kts 159°
2026-04-26 19:50 37.98486 13.60832 25734 ft 455 kts 159°
2026-04-26 19:50 37.95589 13.62449 25130 ft 453 kts 159°
2026-04-26 19:51 37.92742 13.64038 24532 ft 451 kts 159°
2026-04-26 19:51 37.89967 13.66013 23847 ft 456 kts 144°
2026-04-26 19:51 37.87743 13.68799 23152 ft 458 kts 128°
2026-04-26 19:51 37.86165 13.72278 22603 ft 454 kts 114°
2026-04-26 19:52 37.84953 13.75946 22018 ft 449 kts 113°
2026-04-26 19:52 37.83772 13.79590 21415 ft 447 kts 112°
2026-04-26 19:52 37.82611 13.83232 20822 ft 444 kts 112°
2026-04-26 19:52 37.81467 13.86848 20248 ft 441 kts 112°
2026-04-26 19:53 37.80332 13.90445 19677 ft 438 kts 112°
2026-04-26 19:53 37.79222 13.93965 19116 ft 435 kts 112°
2026-04-26 19:53 37.78103 13.97511 18563 ft 433 kts 112°
2026-04-26 19:53 37.76975 14.01033 17857 ft 432 kts 113°
2026-04-26 19:54 37.75836 14.04536 17336 ft 427 kts 113°
2026-04-26 19:54 37.74716 14.07984 16814 ft 421 kts 113°
2026-04-26 19:54 37.73609 14.11393 16303 ft 417 kts 112°
2026-04-26 19:54 37.72510 14.14774 15799 ft 413 kts 113°
2026-04-26 19:55 37.71423 14.18112 15295 ft 409 kts 113°
2026-04-26 19:55 37.70344 14.21423 14796 ft 406 kts 113°
2026-04-26 19:55 37.69287 14.24660 14307 ft 402 kts 113°
2026-04-26 19:55 37.68225 14.27914 13778 ft 399 kts 113°
2026-04-26 19:56 37.67169 14.31143 13250 ft 396 kts 113°
2026-04-26 19:56 37.66119 14.34348 12795 ft 391 kts 113°
2026-04-26 19:56 37.65097 14.37466 12598 ft 379 kts 113°
2026-04-26 19:56 37.64105 14.40490 12450 ft 366 kts 113°
2026-04-26 19:57 37.63145 14.43416 12270 ft 356 kts 113°
2026-04-26 19:57 37.62339 14.46315 12067 ft 347 kts 100°
2026-04-26 19:57 37.62328 14.49299 11880 ft 337 kts 83°
2026-04-26 19:57 37.62541 14.52197 11742 ft 326 kts 85°
2026-04-26 19:58 37.62733 14.55011 11592 ft 317 kts 85°
2026-04-26 19:58 37.62920 14.57747 11435 ft 309 kts 85°
2026-04-26 19:58 37.63102 14.60411 11275 ft 301 kts 85°
2026-04-26 19:58 37.63279 14.63002 11120 ft 293 kts 85°
2026-04-26 19:59 37.63453 14.65545 10873 ft 289 kts 85°
2026-04-26 19:59 37.63624 14.68059 10618 ft 286 kts 85°
2026-04-26 19:59 37.63534 14.70506 10351 ft 282 kts 107°
2026-04-26 19:59 37.62577 14.72610 10080 ft 276 kts 136°
2026-04-26 20:00 37.60979 14.73873 9834 ft 269 kts 163°
2026-04-26 20:00 37.59162 14.74303 9621 ft 263 kts 172°
2026-04-26 20:00 37.57364 14.74609 9389 ft 258 kts 178°
2026-04-26 20:00 37.55636 14.74206 9102 ft 252 kts 208°
2026-04-26 20:01 37.54352 14.72767 8859 ft 246 kts 238°
2026-04-26 20:01 37.53782 14.70781 8652 ft 239 kts 262°
2026-04-26 20:01 37.53571 14.68740 8479 ft 238 kts 262°
2026-04-26 20:01 37.53362 14.66668 8302 ft 239 kts 262°
2026-04-26 20:02 37.53161 14.64590 8100 ft 238 kts 263°
2026-04-26 20:02 37.52968 14.62520 7955 ft 238 kts 263°
2026-04-26 20:02 37.52778 14.60439 7853 ft 238 kts 263°
2026-04-26 20:02 37.52655 14.59064 7786 ft 239 kts 263°
2026-04-26 20:03 37.52243 14.56333 7569 ft 237 kts 241°
2026-04-26 20:03 37.51103 14.54947 7401 ft 226 kts 201°
2026-04-26 20:03 37.49629 14.54821 7236 ft 214 kts 160°
2026-04-26 20:03 37.48446 14.55840 7126 ft 202 kts 134°
2026-04-26 20:04 37.47470 14.57102 6974 ft 202 kts 134°
2026-04-26 20:04 37.46478 14.58399 6585 ft 208 kts 134°
2026-04-26 20:04 37.45478 14.59703 6331 ft 205 kts 134°
2026-04-26 20:04 37.44485 14.60992 6049 ft 205 kts 134°
2026-04-26 20:05 37.43541 14.62334 5736 ft 205 kts 120°
2026-04-26 20:05 37.43170 14.64033 5484 ft 202 kts 90°
2026-04-26 20:05 37.43264 14.65811 5148 ft 205 kts 85°
2026-04-26 20:05 37.43405 14.67564 4966 ft 203 kts 84°
2026-04-26 20:06 37.43551 14.69357 4978 ft 204 kts 84°
2026-04-26 20:06 37.43696 14.71119 5034 ft 205 kts 84°
2026-04-26 20:06 37.43846 14.72909 4952 ft 206 kts 84°
2026-04-26 20:06 37.43995 14.74703 4689 ft 206 kts 84°
2026-04-26 20:07 37.44146 14.76495 4435 ft 205 kts 83°
2026-04-26 20:07 37.44295 14.78279 4180 ft 205 kts 83°
2026-04-26 20:07 37.44444 14.80056 3924 ft 204 kts 83°
2026-04-26 20:07 37.44592 14.81826 3669 ft 203 kts 83°
2026-04-26 20:08 37.44740 14.83593 3406 ft 203 kts 83°
2026-04-26 20:08 37.44888 14.85357 3145 ft 202 kts 83°
2026-04-26 20:08 37.45034 14.87093 2894 ft 195 kts 83°
2026-04-26 20:08 37.45174 14.88767 2636 ft 190 kts 83°
2026-04-26 20:09 37.45313 14.90421 2381 ft 189 kts 83°
2026-04-26 20:09 37.45452 14.92062 2134 ft 188 kts 83°
2026-04-26 20:09 37.45587 14.93679 1882 ft 188 kts 84°